Back to catalog

OPS 4682 DEB

AlivePO
NORAD 38420·DEBRIS·🇺🇸 United States

Launched Apr 3, 1965 from Vandenberg Space Force Base

Loading…

Next Passes (next 24 hours)

TLE

FreshSource: Space-Track

Epoch: Sep 14, 2026, 01:57 UTC

1 38420U 65027DZ  26257.08148362  .00000847  00000-0  27855-2 0  9999
2 38420  90.2544  12.9887 0028854  39.3351 320.9860 13.00024745565931

Track OPS 4682 DEB in real time with AllMySat

Download on the App Store